Location: Catstown
(52.4386°N, 7.2633°W)
Time: 02:13:39
(UTC+00:00)

MetOp-A - Pass Details

Date: 18 September 2020
Orbit: 820 x 821 km, 98.5° (Epoch: 30 October)

Event Time Altitude Azimuth Distance (km) Brightness Sun altitude
Exits shadow 20:03:46 - 158° (SSE) 2,612 6.4 -13.9°
Reaches altitude 10° 20:04:16 10° 158° (SSE) 2,414 6.2 -13.9°
Maximum altitude 20:09:37 80° 72° (ENE) 840 4.1 -14.7°
Drops below altitude 10° 20:15:00 10° 347° (NNW) 2,431 7.1 -15.4°
Sets 20:17:22 0° 346° (NNW) 3,368 7.9 -15.8°
